Time,TemperatureF,DewpointF,PressureIn,WindDirection,WindDirectionDegrees,WindSpeedMPH,WindSpeedGustMPH,Humidity,HourlyPrecipIn,Conditions,Clouds,dailyrainin,SoftwareType,DateUTC
2013-02-14 00:02:00,39.0,33.0,29.67,SW,215,2.0,3.0,80,0.00,,,0.00,,2013-02-14 00:02:00,
2013-02-14 00:11:00,39.0,33.0,29.67,SW,215,2.0,3.0,80,0.00,,,0.00,,2013-02-14 00:11:00,
2013-02-14 00:21:00,38.0,33.0,29.67,SW,227,3.0,4.0,82,0.00,,,0.00,,2013-02-14 00:21:00,
2013-02-14 00:32:00,38.0,33.0,29.68,SW,225,1.0,4.0,83,0.00,,,0.00,,2013-02-14 00:32:00,
2013-02-14 00:42:00,38.0,33.0,29.68,SW,225,1.0,4.0,83,0.00,,,0.00,,2013-02-14 00:42:00,
2013-02-14 00:52:00,38.0,34.0,29.67,SSW,206,4.0,5.0,84,0.00,,,0.00,,2013-02-14 00:52:00,
2013-02-14 01:01:00,38.0,34.0,29.67,SSW,207,4.0,5.0,85,0.00,,,0.00,,2013-02-14 01:01:00,
2013-02-14 01:11:00,38.0,34.0,29.67,SSW,207,4.0,5.0,85,0.00,,,0.00,,2013-02-14 01:11:00,
2013-02-14 01:21:00,38.0,34.0,29.67,SSW,207,2.0,6.0,85,0.00,,,0.00,,2013-02-14 01:21:00,
2013-02-14 01:31:00,38.0,34.0,29.67,SSW,207,2.0,5.0,84,0.00,,,0.00,,2013-02-14 01:31:00,
2013-02-14 01:41:00,38.0,34.0,29.67,SSW,207,2.0,5.0,84,0.00,,,0.00,,2013-02-14 01:41:00,
2013-02-14 01:52:00,38.0,34.0,29.67,WSW,240,1.0,6.0,84,0.00,,,0.00,,2013-02-14 01:52:00,
2013-02-14 02:01:00,38.0,34.0,29.67,SW,217,3.0,5.0,84,0.00,,,0.00,,2013-02-14 02:01:00,
2013-02-14 02:11:00,38.0,34.0,29.67,SW,217,1.0,4.0,84,0.00,,,0.00,,2013-02-14 02:11:00,
2013-02-14 02:21:00,38.0,34.0,29.67,SW,217,1.0,4.0,84,0.00,,,0.00,,2013-02-14 02:21:00,
2013-02-14 02:31:00,38.0,34.0,29.67,SW,217,0.0,4.0,84,0.00,,,0.00,,2013-02-14 02:31:00,
2013-02-14 02:41:00,38.0,34.0,29.67,SW,217,0.0,4.0,84,0.00,,,0.00,,2013-02-14 02:41:00,
2013-02-14 02:52:00,38.0,34.0,29.67,SW,217,0.0,4.0,84,0.00,,,0.00,,2013-02-14 02:52:00,
2013-02-14 03:02:00,37.0,33.0,29.66,SW,217,0.0,4.0,86,0.00,,,0.00,,2013-02-14 03:02:00,
2013-02-14 03:11:00,37.0,33.0,29.66,SW,217,0.0,3.0,86,0.00,,,0.00,,2013-02-14 03:11:00,
2013-02-14 03:21:00,37.0,33.0,29.66,SW,217,0.0,3.0,86,0.00,,,0.00,,2013-02-14 03:21:00,
2013-02-14 03:31:00,36.0,32.0,29.66,SW,216,0.0,3.0,86,0.00,,,0.00,,2013-02-14 03:31:00,
2013-02-14 03:42:00,36.0,32.0,29.66,SW,216,0.0,3.0,86,0.00,,,0.00,,2013-02-14 03:42:00,
2013-02-14 03:52:00,36.0,33.0,29.66,SW,216,2.0,4.0,87,0.00,,,0.00,,2013-02-14 03:52:00,
2013-02-14 04:01:00,36.0,33.0,29.66,SW,216,0.0,4.0,88,0.00,,,0.00,,2013-02-14 04:01:00,
2013-02-14 04:11:00,36.0,33.0,29.66,SW,216,2.0,2.0,88,0.00,,,0.00,,2013-02-14 04:11:00,
2013-02-14 04:21:00,36.0,33.0,29.66,SW,216,2.0,2.0,88,0.00,,,0.00,,2013-02-14 04:21:00,
2013-02-14 04:31:00,36.0,33.0,29.66,SW,216,0.0,3.0,88,0.00,,,0.00,,2013-02-14 04:31:00,
2013-02-14 04:41:00,36.0,33.0,29.66,SW,216,0.0,3.0,88,0.00,,,0.00,,2013-02-14 04:41:00,
2013-02-14 04:52:00,36.0,33.0,29.64,SE,145,4.0,8.0,88,0.00,,,0.00,,2013-02-14 04:52:00,
2013-02-14 05:01:00,36.0,33.0,29.64,South,173,4.0,5.0,88,0.00,,,0.00,,2013-02-14 05:01:00,
2013-02-14 05:11:00,36.0,33.0,29.64,South,173,4.0,5.0,88,0.00,,,0.00,,2013-02-14 05:11:00,
2013-02-14 05:21:00,36.0,33.0,29.64,South,170,4.0,5.0,87,0.00,,,0.00,,2013-02-14 05:21:00,
2013-02-14 05:31:00,37.0,34.0,29.64,SSE,148,1.0,6.0,87,0.00,,,0.00,,2013-02-14 05:31:00,
2013-02-14 05:41:00,37.0,34.0,29.64,SSE,148,1.0,6.0,87,0.00,,,0.00,,2013-02-14 05:41:00,
2013-02-14 05:52:00,36.0,33.0,29.64,SSE,155,5.0,5.0,87,0.00,,,0.00,,2013-02-14 05:52:00,
2013-02-14 06:02:00,36.0,33.0,29.63,SSE,161,2.0,5.0,87,0.00,,,0.00,,2013-02-14 06:02:00,
2013-02-14 06:11:00,37.0,34.0,29.63,SSE,167,2.0,5.0,87,0.00,,,0.00,,2013-02-14 06:11:00,
2013-02-14 06:21:00,37.0,34.0,29.63,SSE,167,2.0,5.0,87,0.00,,,0.00,,2013-02-14 06:21:00,
2013-02-14 06:31:00,37.0,34.0,29.62,SSE,157,2.0,6.0,87,0.00,,,0.00,,2013-02-14 06:31:00,
2013-02-14 06:42:00,37.0,34.0,29.62,SSE,157,2.0,6.0,87,0.00,,,0.00,,2013-02-14 06:42:00,
2013-02-14 06:52:00,37.0,33.0,29.62,SSW,196,5.0,8.0,86,0.00,,,0.00,,2013-02-14 06:52:00,
2013-02-14 07:01:00,37.0,33.0,29.61,SSW,194,3.0,9.0,85,0.00,,,0.00,,2013-02-14 07:01:00,
2013-02-14 07:11:00,37.0,33.0,29.61,SSW,194,3.0,9.0,85,0.00,,,0.00,,2013-02-14 07:11:00,
2013-02-14 07:21:00,38.0,34.0,29.60,South,179,4.0,8.0,85,0.00,,,0.00,,2013-02-14 07:21:00,
2013-02-14 07:31:00,38.0,34.0,29.59,SSW,198,5.0,10.0,85,0.00,,,0.00,,2013-02-14 07:31:00,
2013-02-14 07:41:00,38.0,34.0,29.59,SSW,198,5.0,10.0,85,0.00,,,0.00,,2013-02-14 07:41:00,
2013-02-14 07:52:00,38.0,34.0,29.59,SSE,162,6.0,9.0,84,0.00,,,0.00,,2013-02-14 07:52:00,
2013-02-14 08:01:00,38.0,34.0,29.58,South,190,5.0,13.0,84,0.00,,,0.00,,2013-02-14 08:01:00,
2013-02-14 08:11:00,38.0,34.0,29.58,South,190,5.0,13.0,84,0.00,,,0.00,,2013-02-14 08:11:00,
2013-02-14 08:21:00,38.0,33.0,29.58,SSW,213,11.0,13.0,83,0.00,,,0.00,,2013-02-14 08:21:00,
2013-02-14 08:32:00,38.0,33.0,29.57,SSW,195,7.0,14.0,83,0.00,,,0.00,,2013-02-14 08:32:00,
2013-02-14 08:43:00,38.0,33.0,29.57,SSW,195,7.0,14.0,83,0.00,,,0.00,,2013-02-14 08:43:00,
2013-02-14 08:52:00,38.0,34.0,29.58,SW,227,7.0,12.0,84,0.00,,,0.00,,2013-02-14 08:52:00,
2013-02-14 09:01:00,38.0,34.0,29.57,South,190,9.0,15.0,84,0.00,,,0.00,,2013-02-14 09:01:00,
2013-02-14 09:11:00,38.0,34.0,29.57,South,190,9.0,15.0,84,0.00,,,0.00,,2013-02-14 09:11:00,
2013-02-14 09:21:00,38.0,34.0,29.57,SSW,197,11.0,14.0,84,0.00,,,0.00,,2013-02-14 09:21:00,
2013-02-14 09:31:00,37.0,33.0,29.57,SSW,205,9.0,17.0,85,0.00,,,0.00,,2013-02-14 09:31:00,
2013-02-14 09:42:00,37.0,33.0,29.57,SSW,205,9.0,17.0,85,0.00,,,0.00,,2013-02-14 09:42:00,
2013-02-14 09:52:00,37.0,33.0,29.56,SW,214,7.0,15.0,86,0.00,,,0.00,,2013-02-14 09:52:00,
2013-02-14 10:02:00,37.0,33.0,29.55,SW,225,10.0,14.0,86,0.00,,,0.00,,2013-02-14 10:02:00,
2013-02-14 10:11:00,37.0,33.0,29.55,SW,218,10.0,15.0,86,0.00,,,0.00,,2013-02-14 10:11:00,
2013-02-14 10:21:00,37.0,33.0,29.55,SW,218,10.0,15.0,86,0.00,,,0.00,,2013-02-14 10:21:00,
2013-02-14 10:31:00,37.0,33.0,29.56,SW,222,6.0,14.0,86,0.00,,,0.00,,2013-02-14 10:31:00,
2013-02-14 10:42:00,37.0,33.0,29.56,SW,222,6.0,14.0,86,0.00,,,0.00,,2013-02-14 10:42:00,
2013-02-14 10:52:00,36.0,32.0,29.56,SW,223,6.0,10.0,86,0.00,,,0.00,,2013-02-14 10:52:00,
2013-02-14 11:01:00,36.0,33.0,29.56,SW,232,4.0,9.0,87,0.00,,,0.00,,2013-02-14 11:01:00,
2013-02-14 11:11:00,36.0,33.0,29.56,SW,232,4.0,9.0,87,0.00,,,0.00,,2013-02-14 11:11:00,
2013-02-14 11:21:00,36.0,33.0,29.56,SW,225,5.0,8.0,87,0.00,,,0.00,,2013-02-14 11:21:00,
2013-02-14 11:32:00,36.0,33.0,29.56,WSW,254,6.0,13.0,87,0.00,,,0.00,,2013-02-14 11:32:00,
2013-02-14 11:42:00,36.0,33.0,29.56,WSW,254,6.0,13.0,87,0.00,,,0.00,,2013-02-14 11:42:00,
2013-02-14 11:52:00,36.0,33.0,29.56,WSW,239,5.0,9.0,87,0.00,,,0.00,,2013-02-14 11:52:00,
2013-02-14 12:02:00,36.0,33.0,29.56,WSW,256,4.0,9.0,87,0.00,,,0.00,,2013-02-14 12:02:00,
2013-02-14 12:11:00,36.0,33.0,29.56,WSW,256,4.0,9.0,87,0.00,,,0.00,,2013-02-14 12:11:00,
2013-02-14 12:22:00,36.0,33.0,29.57,WSW,255,7.0,9.0,87,0.00,,,0.00,,2013-02-14 12:22:00,
2013-02-14 12:32:00,36.0,33.0,29.57,WSW,253,7.0,13.0,88,0.00,,,0.00,,2013-02-14 12:32:00,
2013-02-14 12:42:00,36.0,33.0,29.57,WSW,253,7.0,13.0,88,0.00,,,0.00,,2013-02-14 12:42:00,
2013-02-14 12:53:00,36.0,33.0,29.57,West,262,8.0,14.0,87,0.00,,,0.00,,2013-02-14 12:53:00,
2013-02-14 13:01:00,37.0,34.0,29.58,West,259,5.0,10.0,87,0.00,,,0.00,,2013-02-14 13:01:00,
2013-02-14 13:11:00,37.0,34.0,29.58,West,259,5.0,10.0,87,0.00,,,0.00,,2013-02-14 13:11:00,
2013-02-14 13:21:00,37.0,34.0,29.59,WSW,249,5.0,12.0,87,0.00,,,0.00,,2013-02-14 13:21:00,
2013-02-14 13:31:00,36.0,33.0,29.59,West,272,0.0,9.0,87,0.00,,,0.00,,2013-02-14 13:31:00,
2013-02-14 13:41:00,36.0,33.0,29.59,West,272,0.0,9.0,87,0.00,,,0.00,,2013-02-14 13:41:00,
2013-02-14 13:52:00,37.0,34.0,29.60,WSW,248,5.0,12.0,87,0.00,,,0.00,,2013-02-14 13:52:00,
2013-02-14 14:01:00,37.0,34.0,29.60,WSW,237,6.0,11.0,87,0.00,,,0.00,,2013-02-14 14:01:00,
2013-02-14 14:11:00,37.0,34.0,29.60,WSW,237,6.0,11.0,87,0.00,,,0.00,,2013-02-14 14:11:00,
2013-02-14 14:21:00,37.0,33.0,29.61,West,266,5.0,16.0,85,0.00,,,0.00,,2013-02-14 14:21:00,
2013-02-14 14:31:00,37.0,33.0,29.62,WSW,249,4.0,12.0,85,0.00,,,0.00,,2013-02-14 14:31:00,
2013-02-14 14:41:00,37.0,33.0,29.62,WSW,249,4.0,12.0,85,0.00,,,0.00,,2013-02-14 14:41:00,
2013-02-14 14:52:00,37.0,33.0,29.62,WSW,257,7.0,14.0,84,0.00,,,0.00,,2013-02-14 14:52:00,
2013-02-14 15:01:00,37.0,32.0,29.62,West,265,11.0,16.0,83,0.00,,,0.00,,2013-02-14 15:01:00,
2013-02-14 15:11:00,37.0,32.0,29.62,West,265,11.0,16.0,83,0.00,,,0.00,,2013-02-14 15:11:00,
2013-02-14 15:21:00,37.0,32.0,29.63,West,278,7.0,14.0,83,0.00,,,0.00,,2013-02-14 15:21:00,
2013-02-14 15:31:00,37.0,33.0,29.63,West,261,7.0,11.0,84,0.00,,,0.00,,2013-02-14 15:31:00,
2013-02-14 15:41:00,37.0,33.0,29.63,West,261,7.0,11.0,84,0.00,,,0.00,,2013-02-14 15:41:00,
2013-02-14 15:52:00,37.0,33.0,29.63,WSW,254,2.0,19.0,84,0.00,,,0.00,,2013-02-14 15:52:00,
2013-02-14 16:01:00,37.0,33.0,29.64,WNW,284,8.0,14.0,84,0.00,,,0.00,,2013-02-14 16:01:00,
2013-02-14 16:11:00,37.0,33.0,29.65,WSW,248,10.0,11.0,85,0.00,,,0.00,,2013-02-14 16:11:00,
2013-02-14 16:21:00,37.0,33.0,29.65,WSW,248,10.0,11.0,85,0.00,,,0.00,,2013-02-14 16:21:00,
2013-02-14 16:32:00,37.0,33.0,29.66,WNW,282,5.0,13.0,85,0.00,,,0.00,,2013-02-14 16:32:00,
2013-02-14 16:41:00,37.0,33.0,29.66,WNW,282,5.0,13.0,85,0.00,,,0.00,,2013-02-14 16:41:00,
2013-02-14 16:52:00,37.0,33.0,29.67,WNW,293,4.0,10.0,85,0.00,,,0.00,,2013-02-14 16:52:00,
2013-02-14 17:01:00,37.0,33.0,29.67,West,273,2.0,12.0,84,0.00,,,0.00,,2013-02-14 17:01:00,
2013-02-14 17:11:00,37.0,33.0,29.67,West,273,2.0,12.0,84,0.00,,,0.00,,2013-02-14 17:11:00,
2013-02-14 17:21:00,37.0,32.0,29.67,WSW,254,7.0,18.0,82,0.00,,,0.00,,2013-02-14 17:21:00,
2013-02-14 17:31:00,38.0,33.0,29.69,West,275,8.0,12.0,82,0.00,,,0.00,,2013-02-14 17:31:00,
2013-02-14 17:41:00,38.0,33.0,29.69,West,275,8.0,12.0,82,0.00,,,0.00,,2013-02-14 17:41:00,
2013-02-14 17:52:00,38.0,33.0,29.70,West,271,11.0,13.0,81,0.00,,,0.00,,2013-02-14 17:52:00,
2013-02-14 18:01:00,38.0,32.0,29.70,West,279,9.0,14.0,80,0.00,,,0.00,,2013-02-14 18:01:00,
2013-02-14 18:11:00,38.0,32.0,29.70,West,279,9.0,14.0,80,0.00,,,0.00,,2013-02-14 18:11:00,
2013-02-14 18:23:00,39.0,33.0,29.71,WNW,301,4.0,10.0,79,0.00,,,0.00,,2013-02-14 18:23:00,
2013-02-14 18:32:00,39.0,32.0,29.71,West,281,3.0,13.0,76,0.00,,,0.00,,2013-02-14 18:32:00,
2013-02-14 18:42:00,39.0,32.0,29.71,West,281,3.0,13.0,76,0.00,,,0.00,,2013-02-14 18:42:00,
2013-02-14 18:52:00,40.0,33.0,29.71,NW,313,11.0,14.0,75,0.00,,,0.00,,2013-02-14 18:52:00,
2013-02-14 19:02:00,40.0,32.0,29.72,WNW,290,2.0,14.0,73,0.00,,,0.00,,2013-02-14 19:02:00,
2013-02-14 19:11:00,40.0,32.0,29.72,WNW,290,2.0,14.0,73,0.00,,,0.00,,2013-02-14 19:11:00,
2013-02-14 19:21:00,40.0,32.0,29.71,WNW,292,4.0,11.0,73,0.00,,,0.00,,2013-02-14 19:21:00,
2013-02-14 19:31:00,41.0,33.0,29.72,West,280,4.0,14.0,73,0.00,,,0.00,,2013-02-14 19:31:00,
2013-02-14 19:41:00,41.0,33.0,29.72,West,280,4.0,14.0,73,0.00,,,0.00,,2013-02-14 19:41:00,
2013-02-14 19:52:00,41.0,32.0,29.73,NW,312,12.0,15.0,69,0.00,,,0.00,,2013-02-14 19:52:00,
2013-02-14 20:01:00,40.0,30.0,29.74,WNW,291,6.0,12.0,68,0.00,,,0.00,,2013-02-14 20:01:00,
2013-02-14 20:11:00,41.0,31.0,29.75,WSW,246,10.0,12.0,67,0.00,,,0.00,,2013-02-14 20:11:00,
2013-02-14 20:21:00,41.0,31.0,29.75,WSW,246,10.0,12.0,67,0.00,,,0.00,,2013-02-14 20:21:00,
2013-02-14 20:31:00,42.0,30.0,29.75,West,272,6.0,17.0,62,0.00,,,0.00,,2013-02-14 20:31:00,
2013-02-14 20:41:00,42.0,30.0,29.75,West,272,6.0,17.0,62,0.00,,,0.00,,2013-02-14 20:41:00,
2013-02-14 20:52:00,42.0,30.0,29.76,West,260,9.0,17.0,62,0.00,,,0.00,,2013-02-14 20:52:00,
2013-02-14 21:02:00,41.0,29.0,29.77,NW,308,5.0,16.0,62,0.00,,,0.00,,2013-02-14 21:02:00,
2013-02-14 21:11:00,41.0,29.0,29.77,NW,308,5.0,16.0,62,0.00,,,0.00,,2013-02-14 21:11:00,
2013-02-14 21:21:00,41.0,30.0,29.77,West,269,5.0,13.0,65,0.00,,,0.00,,2013-02-14 21:21:00,
2013-02-14 21:31:00,40.0,30.0,29.77,WNW,288,3.0,11.0,66,0.00,,,0.00,,2013-02-14 21:31:00,
2013-02-14 21:42:00,40.0,30.0,29.77,WNW,288,3.0,11.0,66,0.00,,,0.00,,2013-02-14 21:42:00,
2013-02-14 21:52:00,40.0,28.0,29.79,West,278,9.0,14.0,61,0.00,,,0.00,,2013-02-14 21:52:00,
2013-02-14 22:02:00,39.0,27.0,29.80,West,281,6.0,13.0,63,0.00,,,0.00,,2013-02-14 22:02:00,
2013-02-14 22:11:00,40.0,29.0,29.80,WNW,294,8.0,13.0,65,0.00,,,0.00,,2013-02-14 22:11:00,
2013-02-14 22:21:00,40.0,29.0,29.80,WNW,294,8.0,13.0,65,0.00,,,0.00,,2013-02-14 22:21:00,
2013-02-14 22:31:00,40.0,29.0,29.81,NW,311,9.0,14.0,65,0.00,,,0.00,,2013-02-14 22:31:00,
2013-02-14 22:42:00,40.0,29.0,29.81,NW,311,9.0,14.0,65,0.00,,,0.00,,2013-02-14 22:42:00,
2013-02-14 22:52:00,40.0,30.0,29.82,WNW,299,5.0,12.0,66,0.00,,,0.00,,2013-02-14 22:52:00,
2013-02-14 23:01:00,40.0,29.0,29.83,West,274,4.0,13.0,65,0.00,,,0.00,,2013-02-14 23:01:00,
2013-02-14 23:11:00,40.0,29.0,29.83,West,274,4.0,13.0,65,0.00,,,0.00,,2013-02-14 23:11:00,
2013-02-14 23:21:00,38.0,28.0,29.84,West,265,4.0,7.0,67,0.00,,,0.00,,2013-02-14 23:21:00,
2013-02-14 23:31:00,37.0,28.0,29.85,West,272,4.0,6.0,69,0.00,,,0.00,,2013-02-14 23:31:00,
2013-02-14 23:41:00,37.0,28.0,29.85,West,272,4.0,6.0,69,0.00,,,0.00,,2013-02-14 23:41:00,
2013-02-14 23:52:00,37.0,28.0,29.85,West,280,6.0,7.0,70,0.00,,,0.00,,2013-02-14 23:52:00,